Other Public Products
Issued by NWS Grand Forks, ND

Home | Current Version | Previous Version | Graphics & Text | Print | Product List | Glossary On
Versions: 1 2 3 4 5 6 7 8 9 10 11 12 13 14 15 16 17 18 19 20 21 22 23 24 25 26 27 28 29 30 31 32 33 34 35 36 37 38 39 40 41 42 43 44 45 46 47 48 49 50
000
FPUS83 KFGF 280231
OPUFGF
PRAIRIE TO PINES WEATHER ROUNDUP
NATIONAL WEATHER SERVICE EASTERN NORTH DAKOTA/GRAND FORKS ND
900 PM CDT WED AUG 27 2014

 **SATELLITE DATA USED TO AUGMENT SKY COVER AT AUTOMATED STATIONS**
 *****  WEATHER ACROSS EASTERN NORTH DAKOTA  *****

CITY           SKY/WX    TMP DP  RH WIND       PRES   REMARKS
GRAND FORKS    CLEAR     65  58  78 SE5       30.06S
GRAND FORKS AF CLEAR     64  61  89 S7        30.07S
GRAND CITY NWS   N/A     64 N/A N/A SE5         N/A
BUXTON           N/A     65  63  92 E3          N/A
DEVILS LAKE    CLEAR     66  55  68 S8        30.04R
FARGO          CLEAR     63  59  87 E6        30.07S
WAHPETON ARPT  MOCLDY    64  59  82 SE5       30.10R
$$

 *****  WEATHER ACROSS CENTRAL AND WESTERN NORTH DAKOTA  *****

CITY           SKY/WX    TMP DP  RH WIND       PRES   REMARKS
JAMESTOWN      CLOUDY    67  61  81 SE6       30.06R
BISMARCK       PTCLDY    68  62  81 S6        30.04S
MINOT          CLEAR     67  57  70 SE7       29.99S
MINOT AFB      CLEAR     65  61  84 S7        29.98S
GARRISON         N/A     65  60  84 S6        30.01R
WILLISTON      CLEAR     75  53  46 S9        29.94F
DICKINSON      MOCLDY    64  56  75 SE8       30.02R
HETTINGER      MOCLDY    65  61  87 SE7       30.06R
$$

 *****  OTHER OBSERVATIONS NORTHEAST NORTH DAKOTA  *****

CITY           SKY/WX    TMP DP  RH WIND       PRES   REMARKS
WALHALLA         N/A     63  61  94 S3        30.05R
LANGDON        FAIR      59  55  88 S8        30.06R
CAVALIER       FAIR      63  57  82 S3        30.05R
GRAFTON        FAIR      61  57  88 SE8       30.06R
CANDO          FAIR      59  57  94 S8        30.04R
FORT TOTTEN      N/A     66  58  74 SE6       29.95S
ROLLA          FAIR      57  57 100 S3        30.04S
RUGBY          FAIR      64  57  77 SE7       30.02R
 ***** THE ABOVE OBSERVATIONS ARE NON NWS ARE NOT QUALITY
        CONTROLLED AND MAY MIS-REPORT RAIN FOR SNOW...
$$

 *****  OTHER OBSERVATIONS SOUTHEAST NORTH DAKOTA *****

CITY           SKY/WX    TMP DP  RH WIND       PRES   REMARKS
COOPERSTOWN    NOT AVBL
VALLEY CITY    CLOUDY    68  66  94 SE9       30.08R
OAKES            N/A     66  64  94 E7        30.07R
GWINNER        MOCLDY    66  63  88 SE6       30.09R
SHEYENNE NWR     N/A     64  61  89 SE3       29.95
BUFFALO          N/A     64  58  82 CALM        N/A
WYNDMERE       NOT AVBL
 ***** THE ABOVE OBSERVATIONS ARE NON NWS ARE NOT QUALITY
       CONTROLLED AND MAY MIS-REPORT RAIN FOR SNOW...
$$

  *****  WEATHER ACROSS NORTHERN MINNESOTA  *****

CITY           SKY/WX    TMP DP  RH WIND       PRES   REMARKS
FLAG ISLAND    CLEAR     66  52  59 S7        30.09S
WARROAD        CLEAR     57  52  82 SE5       30.11S
ROSEAU         CLEAR     61  52  72 CALM      30.09S
HALLOCK        CLEAR     59  55  88 SE7       30.06R
THF RVR FALLS  CLEAR     61  54  77 SE5       30.09S
HALSTAD          N/A     60  55  85 SE7         N/A
FOSSTON        MOCLDY    61  55  82 CALM      30.11S
BAUDETTE       CLEAR     57  53  86 CALM      30.11R
WASKISH        CLEAR     55  52  88 CALM      30.11S
CROOKSTON      CLEAR     61  55  82 SE6       30.09S
$$
  *****  WEATHER ACROSS CENTRAL AND WEST MINNESOTA  *****

CITY           SKY/WX    TMP DP  RH WIND       PRES   REMARKS
BEMIDJI        CLEAR     57  53  86 CALM      30.12S
PARK RAPIDS    CLEAR     64  58  80 SE5       30.13R
WADENA         CLEAR     61  57  88 CALM      30.13R
DETROIT LAKES  CLEAR     63  59  88 SE5       30.13S
MOORHEAD       CLEAR     66  63  88 SE6       30.10R
FERGUS FALLS   MOCLDY    68  55  64 SE5       30.10R
ELBOW LAKE     MOCLDY    67  60  80 SE3       30.11R
MORRIS MN      PTCLDY    66  63  88 E6        30.10S
STAPLES        CLEAR     61  59  94 CALM      30.13S
WHEATON        MOCLDY    63  61  94 SE6       30.11S
$$
  *****  WEATHER ELSEWHERE ACROSS MINNESOTA  *****

CITY           SKY/WX    TMP DP  RH WIND       PRES   REMARKS
DULUTH         PTCLDY    61  53  75 E3        30.14R
INTRNTL FALLS  CLEAR     52  50  93 CALM      30.11S
ELY            CLEAR     54  48  82 CALM      30.14S
CLOQUET        CLEAR     55  54  94 SW3       30.14S
BRAINERD       PTCLDY    59  58  96 CALM      30.14R
HIBBING        MOCLDY    55  52  89 CALM      30.14R
ALEXANDRIA     MOCLDY    67  59  75 E6        30.14R
SAINT CLOUD    PTCLDY    66  58  75 E3        30.12S
MINNEAPOLIS    PTCLDY    71  57  61 E9        30.12R
$$

  *****  WEATHER ACROSS SOUTH DAKOTA  *****

CITY           SKY/WX    TMP DP  RH WIND       PRES   REMARKS
SIOUX FALLS    CLOUDY    70  66  87 E8        30.08R
BROOKINGS      NOT AVBL
WATERTOWN      PTCLDY    68  62  81 SE3       30.08S
HURON          MOCLDY    70  64  81 SE7       30.04S
SISSETON         N/A     66  62  87 SE5       30.07S
ABERDEEN       CLOUDY    66  63  90 E7        30.05S
MITCHELL       MOCLDY    68  66  93 SE5       30.06R
PIERRE         CLOUDY    71  66  84 E9        30.01R
MOBRIDGE       CLOUDY    69  64  84 E10       30.01S
RAPID CITY     LGT RAIN  64  62  93 SE7       30.08R
$$

  *****  SOME WEATHER IN NEARBY STATES *****

CITY           SKY/WX    TMP DP  RH WIND       PRES   REMARKS
GLASGOW MT     CLEAR     77  53  43 N3        29.91S
GREAT FALLS MT CLEAR     73  48  41 W6        30.01S
CHEYENNE WY    MOCLDY    58  52  80 N3        30.18R
SCOTTSBLUFF NE MOCLDY    65  61  87 W6        30.07F
OMAHA NE       CLOUDY    73  69  87 SE9       30.05R
DES MOINES IA  CLOUDY    74  67  78 CALM      30.09R
DAVENPORT IA   PTCLDY    65  62  90 E3        30.12R
CHICAGO IL     MOCLDY    70  59  68 NE8       30.12R
EAU CLAIRE WI  CLEAR     63  57  81 N3        30.13R
LA CROSSE WI   CLEAR     69  61  75 CALM      30.11R
$$

  *****  SOME NATIONAL WEATHER *****

CITY           SKY/WX    TMP DP  RH WIND       PRES   REMARKS
LA GUARDIA NY  MOCLDY    79  66  64 E8        29.89R
RALEIGH NC     PTCLDY    67  61  81 CALM      30.00R
ATLANTA GA     PTCLDY    81  59  47 W3        30.05R
NEW ORLEANS LA MOCLDY    83  75  77 SE6       29.98S HX  90
OKLAHOMA CITY  PTCLDY    85  65  51 SE7       30.01R
ALBUQUERQUE NM PTCLDY    77  47  34 N3        30.20R
SALT LAKE CITY PTCLDY    73  45  36 CALM      30.19S
LOS ANGELES CA CLEAR     75  62  64 W17       29.97F
BOISE ID       CLEAR     86  37  17 N3        30.03F
SEATTLE WA     PTCLDY    81  56  42 W5        30.01S
$$

*** WEATHER ACROSS MANITOBA...SASKATCHEWAN AND ONTARIO ***
                ***ONTARIO***

CITY           SKY/WX    TMP DP  RH WIND       PRES   REMARKS
GERALDTON      PTCLDY    50  48  93 S2        30.13S
THUNDER BAY    PTCLDY    52  50  93 W2        30.14R
SIOUX LOOKOUT  PTCLDY    52  50  93 S2        30.10S
TORONTO        CLEAR     63  50  63 NW13      30.07R
BIG TROUT LK   NOT AVBL
PICKLE LAKE    CLEAR     57  46  67 S8        30.08R
DRYDEN         CLEAR     61  48  63 SW7       30.11S
KENORA         CLEAR     63  52  67 S7        30.12R
$$
                *** MANITOBA***

CITY           SKY/WX    TMP DP  RH WIND       PRES   REMARKS
BRANDON        CLEAR     64  54  68 S5        30.00F
DAUPHIN        CLEAR     64  55  72 S5        29.94S
ISLAND LAKE    MOCLDY    70  54  56 S6        29.88S
PILOT MOUND      N/A     57  54  88 SE7         N/A
THE PAS        CLOUDY   N/A N/A N/A W3          N/A  THUNDER
THOMPSON       MOCLDY   N/A N/A N/A SW12        N/A
WINNIPEG       CLEAR     66  52  59 S9        30.04S
LYNN LAKE      MOCLDY    61  59  94 MISG      29.67F
CHURCHILL      MOCLDY    61  54  77 S9        29.61F
GILLAM         MOCLDY    64  57  77 S9        29.71F
$$
                ***SASKATCHEWAN***

CITY           SKY/WX    TMP DP  RH WIND       PRES   REMARKS
ESTEVAN        PTCLDY    68  57  68 SE7       29.94S
KINDERSLEY     PTCLDY    70  54  56 N8        29.87R
LLOYDMINSTER   MOCLDY    64  57  77 W2        29.86S
PRINCE ALBERT  PTCLDY    66  59  77 CALM      29.81S
REGINA         CLEAR     72  61  68 SE6       29.86F



USA.gov is the U.S. government's official web portal to all federal, state and local government web resources and services.